Weather History for Guadalupe Pass, TX

Change the Weather History Date:

Thursday, February 21, 2013

  Actual Average Record
Temperature  
Mean Temperature 35 °F -  
Max Temperature 45 °F 53 °F 73 °F (2000)
Min Temperature 25 °F 34 °F 25 °F (2013)
Degree Days  
Heating Degree Days 30    
Moisture  
Dew Point 22 °F    
Average Humidity 70    
Maximum Humidity 96    
Minimum Humidity 35    
Precipitation  
Precipitation 0.00 in - - ()
Sea Level Pressure  
Sea Level Pressure 29.75 in    
Wind  
Wind Speed 36 mph (WSW)    
Max Wind Speed 46 mph    
Max Gust Speed 55 mph    
Visibility 8 miles    
Events Fog , Snow    
Averages and records for this station are not official NWS values.
T = Trace of Precipitation, MM = Missing Value Source: NWS Daily Summary

Daily Weather History Graph

Daily Weather History Graph

Search for Another Location

Airport:

Trip Planner

Search our weather history database for the weather conditions in past years. The results will help you decide how hot, cold, wet, or windy it might be!

Date:

Astronomy

Feb. 21, 2013 Rise Set
Actual Time 6:34 AM MST 5:51 PM MST
Civil Twilight 6:10 AM MST 6:15 PM MST
Nautical Twilight 5:41 AM MST 6:44 PM MST
Astronomical Twilight 5:13 AM MST 7:12 PM MST
Moon 2:17 PM MST (2/21) 3:31 AM MST (2/21)
Length of Visible Light 12h 05m
Length of Day
11h 16m
Waxing Gibbous, 84% of the Moon is Illuminated
Feb 21
Waxing Gibbous
Feb 25
Full
Mar 4
Last Quarter
Mar 11
New
Mar 19
First Quarter

Hourly Weather History & Observations

Time (MST) Temp. Windchill Dew Point Humidity Pressure Visibility Wind Dir Wind Speed Gust Speed Precip Events Conditions
12:33 AM 28.9 °F 10.6 °F 25.0 °F 85% 29.66 in 4.0 mi WSW 46.0 mph 55.2 mph 0.00 in Snow Light Snow
12:38 AM 28.9 °F 11.3 °F 25.0 °F 85% 29.68 in 1.8 mi WSW 41.4 mph 55.2 mph 0.00 in Snow Light Snow
12:48 AM 28.4 °F 12.0 °F 26.6 °F 93% 29.69 in 1.5 mi WSW 33.4 mph 47.2 mph 0.00 in Snow Light Snow
12:51 AM 28.0 °F 11.5 °F 26.1 °F 92% 29.62 in 2.5 mi WSW 33.4 mph 44.9 mph 0.00 in Snow Light Snow
12:59 AM 28.0 °F 11.8 °F 26.1 °F 92% 29.69 in 5.0 mi WSW 32.2 mph 47.2 mph 0.00 in   Overcast
1:02 AM 28.0 °F 12.0 °F 26.1 °F 92% 29.69 in 1.5 mi WSW 31.1 mph 47.2 mph 0.00 in   Overcast
1:08 AM 28.0 °F 12.3 °F 27.0 °F 96% 29.69 in 0.2 mi WSW 29.9 mph 40.3 mph 0.00 in Fog Light Freezing Fog
1:51 AM 28.0 °F 11.8 °F 27.0 °F 96% 29.60 in 0.2 mi WSW 32.2 mph 41.4 mph 0.00 in Fog Light Freezing Fog
2:02 AM 27.0 °F 10.5 °F 26.1 °F 96% 29.65 in 1.0 mi SW 31.1 mph 42.6 mph N/A   Mist
2:05 AM 27.0 °F 9.8 °F 26.1 °F 96% 29.65 in 4.0 mi WSW 34.5 mph 42.6 mph N/A   Mostly Cloudy
2:15 AM 27.0 °F 9.6 °F 24.1 °F 89% 29.66 in 10.0 mi WSW 35.7 mph 48.3 mph N/A   Scattered Clouds
2:47 AM 26.6 °F 7.9 °F 21.2 °F 80% 29.68 in 10.0 mi WSW 42.6 mph 49.5 mph N/A   Mostly Cloudy
2:51 AM 27.0 °F 8.8 °F 21.9 °F 81% 29.60 in 10.0 mi WSW 40.3 mph 49.5 mph N/A   Mostly Cloudy
3:32 AM 27.0 °F 9.2 °F 23.0 °F 85% 29.68 in 10.0 mi WSW 38.0 mph 44.9 mph N/A   Overcast
3:51 AM 27.0 °F 9.2 °F 23.0 °F 85% 29.59 in 10.0 mi WSW 38.0 mph 48.3 mph N/A   Mostly Cloudy
4:18 AM 27.0 °F 9.4 °F 21.9 °F 81% 29.68 in 10.0 mi WSW 36.8 mph 50.6 mph N/A   Mostly Cloudy
4:51 AM 27.0 °F 10.3 °F 21.0 °F 78% 29.67 in 10.0 mi WSW 32.2 mph 41.4 mph N/A   Scattered Clouds
5:18 AM 27.0 °F 10.0 °F 19.9 °F 75% 29.72 in 10.0 mi WSW 33.4 mph 41.4 mph N/A   Mostly Cloudy
5:51 AM 26.1 °F 8.4 °F 19.0 °F 75% 29.69 in 10.0 mi WSW 35.7 mph 47.2 mph N/A   Mostly Cloudy
6:11 AM 25.0 °F 7.1 °F 19.0 °F 78% 29.73 in 10.0 mi WSW 34.5 mph 42.6 mph N/A   Scattered Clouds
6:51 AM 27.0 °F 10.3 °F 18.0 °F 69% 29.77 in 8.0 mi WSW 32.2 mph 52.9 mph N/A   Scattered Clouds
7:51 AM 28.0 °F 10.9 °F 18.0 °F 66% 29.78 in 8.0 mi WSW 36.8 mph 50.6 mph N/A   Clear
8:51 AM 30.9 °F 14.1 °F 19.0 °F 61% 29.78 in 8.0 mi WSW 41.4 mph 52.9 mph N/A   Clear
9:51 AM 34.0 °F 18.4 °F 19.9 °F 56% 29.83 in 9.0 mi WSW 41.4 mph 48.3 mph N/A   Clear
10:51 AM 37.0 °F 23.1 °F 21.0 °F 52% 29.84 in 9.0 mi WSW 38.0 mph 47.2 mph N/A   Partly Cloudy
11:51 AM 39.9 °F 26.7 °F 21.9 °F 49% 29.84 in 9.0 mi WSW 41.4 mph 47.2 mph N/A   Clear
12:51 PM 43.0 °F 31.8 °F 21.9 °F 43% 29.83 in 9.0 mi WSW 34.5 mph 44.9 mph N/A   Clear
1:51 PM 45.0 °F 33.6 °F 21.0 °F 39% 29.81 in 9.0 mi WSW 42.6 mph 49.5 mph N/A   Clear
2:51 PM 44.1 °F 32.2 °F 19.9 °F 38% 29.77 in 9.0 mi WSW 43.7 mph 55.2 mph N/A   Clear
3:51 PM 44.1 °F 32.4 °F 19.0 °F 37% 29.78 in 9.0 mi WSW 41.4 mph 52.9 mph N/A   Clear
4:51 PM 43.0 °F 32.2 °F 17.1 °F 35% 29.80 in 9.0 mi WSW 32.2 mph 40.3 mph N/A   Clear
5:51 PM 39.9 °F 27.8 °F 18.0 °F 41% 29.83 in 9.0 mi WSW 33.4 mph 42.6 mph N/A   Clear
6:51 PM 37.9 °F 25.3 °F 19.0 °F 47% 29.87 in 10.0 mi WSW 32.2 mph 40.3 mph N/A   Clear
7:51 PM 37.0 °F 25.9 °F 19.9 °F 50% 29.89 in 10.0 mi WSW 23.0 mph 31.1 mph N/A   Clear
8:51 PM 36.0 °F 25.3 °F 19.0 °F 50% 29.91 in 10.0 mi WSW 19.6 mph - N/A   Clear
9:51 PM 35.1 °F 23.5 °F 19.9 °F 54% 29.91 in 10.0 mi WSW 21.9 mph - N/A   Clear
10:51 PM 33.1 °F 20.9 °F 19.9 °F 59% 29.91 in 10.0 mi WSW 21.9 mph - N/A   Clear
11:51 PM 30.9 °F 18.7 °F 21.0 °F 67% 29.91 in 10.0 mi WSW 19.6 mph - N/A   Clear